Flag for Germany Weather past 2 weeks in Uelzen, Lower Saxony, Germany

Now
39 °F

Light rain. Fog.


Feels Like: 37 °F
Forecast: 40 / 47 °F
Wind: 3 mph from Southwest

Location: Fassberg

Current Time: Mar 27, 2015 at 12:48:21 AM

Latest Report: Mar 26, 2015 at 11:20 PM


Visibility: 2 mi

Pressure: 29.74 "Hg

Humidity: 93%

Dew point: 37 °F

Location of UelzenLocation

Historic Weather in Uelzen — Graph

°F

Uelzen temperature yesterday

Maximum temperature yesterday: 45 °F (at 12:20 AM)
Minimum temperature yesterday: 37 °F (at 7:20 PM)
Average temperature yesterday: 41 °F

Past Weeks' High & Low Weather Summary

 TemperatureHumidityPressure
High59 °F (Mar 18, 1:20 PM)100% (Mar 12, 12:20 AM)30.54 "Hg (Mar 12, 12:20 AM)
Low23 °F (Mar 20, 5:20 AM)29% (Mar 19, 3:20 PM)29.65 "Hg (Mar 25, 5:20 PM)
Average40 °F76%30.18 "Hg
* Reported Mar 11 11:20 PM — Mar 26 11:20 PM, Uelzen, Weather by CustomWeather, © 2015

Note: Actual official high and low records may vary slightly from our data, if they occured in-between our weather recording intervals... More about our weather records

Advertising

Uelzen weather history for previous 24 hours

 ConditionsComfort  
Time TempWeatherWind HumidityBarometerVisibility
11:20 PM
Thu, Mar 26
39 °FLight rain. Fog.3 mph93%29.74 "Hg2 mi
10:20 PM39 °FFog.3 mph87%29.74 "Hg3 mi
9:20 PM39 °FPassing clouds.3 mph87%29.74 "Hg4 mi
8:20 PM37 °FPassing clouds.1 mph87%29.74 "HgN/A
7:20 PM37 °FPartly cloudy.2 mph87%29.74 "HgN/A
6:20 PM43 °FPartly sunny.2 mph71%29.74 "HgN/A
5:20 PM43 °FBroken clouds.6 mph71%29.71 "HgN/A
4:20 PM45 °FBroken clouds.6 mph66%29.74 "HgN/A
3:20 PM43 °FPartly sunny.8 mph71%29.74 "HgN/A
2:20 PM43 °FPartly sunny.9 mph71%29.74 "HgN/A
1:20 PM43 °FPartly sunny.10 mph66%29.74 "HgN/A
12:20 PM43 °FPartly sunny.9 mph71%29.74 "HgN/A
11:20 AM41 °FPartly sunny.8 mph76%29.74 "HgN/A
10:20 AM41 °FPartly sunny.9 mph76%29.74 "HgN/A
9:20 AM39 °FPartly sunny.13 mph87%29.74 "HgN/A
8:20 AM41 °FPartly sunny.9 mph81%29.74 "HgN/A
7:45 AM39 °FPartly sunny.10 mph87%29.74 "Hg5 mi
7:20 AM41 °FLight rain. Partly sunny.10 mph81%29.74 "Hg4 mi
6:20 AM41 °FFog.13 mph87%29.71 "Hg3 mi
5:48 AM41 °FFog.9 mph87%29.71 "Hg3 mi
5:20 AM41 °FOvercast.9 mph87%29.71 "Hg4 mi
4:20 AM43 °FFog.8 mph87%29.68 "Hg3 mi
3:20 AM43 °FFog.10 mph87%29.68 "Hg3 mi
2:20 AM43 °FFog.9 mph87%29.68 "Hg3 mi
1:20 AM45 °FFog.12 mph81%29.68 "Hg3 mi
12:20 AM45 °FFog.16 mph87%29.68 "Hg2 mi
Weather by CustomWeather, © 2015

See weather overviewHow to use our weather pages